Gaylord, MI

9:54 PM EST on February 13, 2016 (GMT -0500)
Otsego County

Weather History for KGLR - January, 2013

Change the Weather History Date:

Thursday, January 17, 2013

  Actual Average Record
Temperature  
Mean Temperature 13 °F -  
Max Temperature 18 °F 25 °F 48 °F (1973)
Min Temperature 8 °F 10 °F -22 °F (1978)
Degree Days  
Heating Degree Days 52    
Moisture  
Dew Point 6 °F    
Average Humidity 81    
Maximum Humidity 92    
Minimum Humidity 62    
Precipitation  
Precipitation 0.01 in - - ()
Sea Level Pressure  
Sea Level Pressure 30.14 in    
Wind  
Wind Speed 5 mph (WNW)    
Max Wind Speed 14 mph    
Max Gust Speed 25 mph    
Visibility 3 miles    
Events Fog , Snow    
Averages and records for this station are not official NWS values.
T = Trace of Precipitation, MM = Missing Value Source: NWS Daily Summary

Daily Weather History Graph

Daily Weather History Graph

Search for Another Location

Airport or City:

Trip Planner

Search our weather history database for the weather conditions in past years. The results will help you decide how hot, cold, wet, or windy it might be!

Date:

Astronomy

Jan. 17, 2013 Rise Set
Actual Time 8:12 AM EST 5:26 PM EST
Civil Twilight 7:39 AM EST 5:58 PM EST
Nautical Twilight 7:03 AM EST 6:35 PM EST
Astronomical Twilight 6:28 AM EST 7:10 PM EST
Moon 10:59 AM EST (1/17) No Moon Set
Length of Visible Light 10h 19m
Length of Day
9h 14m
Waxing Crescent, 37% of the Moon is Illuminated
Jan 17
Waxing Crescent
Jan 18
First Quarter
Jan 26
Full
Feb 3
Last Quarter
Feb 10
New

Hourly Weather History & Observations

Time (EST) Temp. Windchill Dew Point Humidity Pressure Visibility Wind Dir Wind Speed Gust Speed Precip Events Conditions
12:53 AM 18.0 °F 9.8 °F 12.9 °F 81% 29.99 in 2.5 mi Variable 5.8 mph - 0.00 in Snow Light Snow
1:39 AM 17.6 °F 8.2 °F 10.4 °F 73% 29.95 in 5.0 mi Variable 6.9 mph - 0.00 in Snow Light Snow
1:49 AM 15.8 °F - 10.4 °F 79% 29.96 in 6.0 mi Calm Calm - 0.00 in Snow Light Snow
1:53 AM 16.0 °F 8.8 °F 10.9 °F 81% 30.03 in 7.0 mi Variable 4.6 mph - 0.00 in Snow Light Snow
2:53 AM 15.1 °F 9.4 °F 10.9 °F 84% 30.07 in 2.5 mi NNE 3.5 mph - 0.00 in Snow Light Snow
2:58 AM 15.8 °F 10.2 °F 10.4 °F 79% 30.00 in 1.8 mi North 3.5 mph - 0.00 in Snow Light Snow
3:08 AM 14.0 °F - 10.4 °F 86% 30.01 in 2.5 mi Calm Calm - 0.00 in Snow Light Snow
3:35 AM 14.0 °F 6.5 °F 10.4 °F 86% 30.02 in 1.8 mi Variable 4.6 mph - 0.00 in Snow Light Snow
3:43 AM 14.0 °F 5.1 °F 10.4 °F 86% 30.02 in 2.0 mi Variable 5.8 mph - 0.00 in Snow Light Snow
3:53 AM 12.9 °F 5.2 °F 8.1 °F 81% 30.09 in 3.0 mi Variable 4.6 mph - 0.00 in Snow Light Snow
4:43 AM 12.2 °F 4.3 °F 6.8 °F 79% 30.04 in 6.0 mi Variable 4.6 mph - 0.00 in Snow Light Snow
4:53 AM 12.0 °F 5.9 °F 6.1 °F 77% 30.11 in 7.0 mi Variable 3.5 mph - 0.00 in   Overcast
5:15 AM 12.2 °F 6.1 °F 6.8 °F 79% 30.06 in 7.0 mi Variable 3.5 mph - 0.00 in Snow Light Snow
5:53 AM 10.9 °F - 6.1 °F 81% 30.14 in 4.0 mi Calm Calm - 0.00 in Snow Light Snow
6:53 AM 10.9 °F - 7.0 °F 84% 30.16 in 3.0 mi Calm Calm - 0.00 in Snow Light Snow
7:01 AM 10.4 °F - 6.8 °F 85% 30.09 in 4.0 mi Calm Calm - 0.00 in Snow Light Snow
7:53 AM 10.9 °F - 7.0 °F 84% 30.17 in 6.0 mi Calm Calm - 0.00 in Snow Light Snow
8:08 AM 10.4 °F - 6.8 °F 85% 30.11 in 5.0 mi Calm Calm - 0.00 in Snow Light Snow
8:25 AM 10.4 °F - 6.8 °F 85% 30.11 in 4.0 mi Calm Calm - 0.00 in Snow Light Snow
8:43 AM 10.4 °F - 8.6 °F 92% 30.12 in 2.5 mi Calm Calm - 0.00 in Snow Light Snow
8:53 AM 10.9 °F - 8.1 °F 88% 30.20 in 2.0 mi Calm Calm - 0.00 in Snow Light Snow
9:17 AM 10.4 °F - 6.8 °F 85% 30.14 in 2.0 mi Calm Calm - 0.00 in Snow Light Snow
9:26 AM 10.4 °F 4.0 °F 8.6 °F 92% 30.14 in 1.5 mi WSW 3.5 mph - 0.00 in Snow Light Snow
9:53 AM 10.9 °F 4.7 °F 8.1 °F 88% 30.22 in 1.8 mi WSW 3.5 mph - 0.00 in Snow Light Snow
10:24 AM 12.2 °F 6.1 °F 6.8 °F 79% 30.15 in 3.0 mi West 3.5 mph - 0.00 in Snow Light Snow
10:53 AM 12.0 °F 5.9 °F 7.0 °F 80% 30.22 in 5.0 mi WNW 3.5 mph - 0.00 in   Haze
11:06 AM 12.2 °F - 6.8 °F 79% 30.14 in 1.8 mi Calm Calm - 0.00 in Snow Light Snow
11:13 AM 12.2 °F 4.3 °F 8.6 °F 85% 30.14 in 1.0 mi WNW 4.6 mph - 0.00 in Snow Light Snow
11:21 AM 12.2 °F 4.3 °F 8.6 °F 85% 30.14 in 0.8 mi WNW 4.6 mph - 0.00 in Snow Light Snow
11:31 AM 12.2 °F 1.7 °F 8.6 °F 85% 30.14 in 0.8 mi West 6.9 mph - 0.00 in Snow Light Snow
11:53 AM 12.0 °F 1.5 °F 8.1 °F 84% 30.21 in 0.5 mi Variable 6.9 mph 16.1 mph 0.00 in Fog , Snow Snow
12:03 PM 12.2 °F 1.7 °F 6.8 °F 79% 30.13 in 0.5 mi WNW 6.9 mph 16.1 mph 0.00 in Snow Snow
12:20 PM 12.2 °F 2.9 °F 6.8 °F 79% 30.12 in 1.2 mi West 5.8 mph - 0.00 in Snow Light Snow
12:27 PM 12.2 °F 0.7 °F 6.8 °F 79% 30.12 in 1.2 mi West 8.1 mph - 0.00 in Snow Light Snow
12:51 PM 12.2 °F 0.7 °F 6.8 °F 79% 30.11 in 0.8 mi West 8.1 mph 16.1 mph 0.00 in Snow Light Snow
12:53 PM 12.0 °F 0.5 °F 7.0 °F 80% 30.19 in 0.8 mi West 8.1 mph 16.1 mph 0.00 in Snow Light Snow
1:10 PM 12.2 °F 2.9 °F 6.8 °F 79% 30.11 in 1.0 mi Variable 5.8 mph - 0.00 in Snow Light Snow
1:53 PM 12.0 °F -3.4 °F 3.0 °F 67% 30.19 in 1.8 mi WNW 13.8 mph 25.3 mph 0.00 in Snow Light Snow
1:58 PM 12.2 °F -1.0 °F 1.4 °F 62% 30.10 in 3.0 mi West 10.4 mph 21.9 mph 0.00 in Snow Light Snow
2:33 PM 10.4 °F -4.1 °F 3.2 °F 73% 30.10 in 2.5 mi WNW 11.5 mph 23.0 mph 0.00 in Snow Light Snow
2:53 PM 10.9 °F 0.2 °F 3.9 °F 73% 30.18 in 2.0 mi Variable 6.9 mph 18.4 mph 0.00 in Snow Light Snow
3:01 PM 10.4 °F -1.5 °F 6.8 °F 85% 30.10 in 1.0 mi WNW 8.1 mph 17.3 mph 0.00 in Snow Light Snow
3:28 PM 10.4 °F -1.5 °F 6.8 °F 85% 30.11 in 0.5 mi WNW 8.1 mph 19.6 mph 0.00 in Snow Snow
3:43 PM 10.4 °F -4.1 °F 5.0 °F 79% 30.10 in 1.0 mi WNW 11.5 mph 23.0 mph 0.00 in Snow Light Snow
3:53 PM 10.9 °F -2.6 °F 5.0 °F 77% 30.19 in 0.8 mi West 10.4 mph 17.3 mph 0.00 in Snow Light Snow
4:10 PM 10.4 °F 0.8 °F 6.8 °F 85% 30.11 in 0.5 mi NW 5.8 mph - 0.00 in Fog , Snow Light Snow
4:39 PM 10.4 °F -0.4 °F 5.0 °F 79% 30.11 in 1.2 mi Variable 6.9 mph 17.3 mph 0.00 in Snow Light Snow
4:50 PM 10.4 °F 0.8 °F 5.0 °F 79% 30.11 in 2.5 mi WNW 5.8 mph - 0.00 in Snow Light Snow
4:53 PM 10.0 °F 0.4 °F 5.0 °F 80% 30.21 in 2.5 mi Variable 5.8 mph - 0.00 in Snow Light Snow
5:09 PM 10.4 °F -0.4 °F 5.0 °F 79% 30.12 in 1.5 mi WNW 6.9 mph - 0.00 in Snow Light Snow
5:40 PM 10.4 °F -0.4 °F 5.0 °F 79% 30.13 in 3.0 mi West 6.9 mph - 0.00 in Snow Light Snow
5:53 PM 10.0 °F 0.4 °F 5.0 °F 80% 30.23 in 3.0 mi Variable 5.8 mph 16.1 mph 0.00 in Snow Light Snow
6:01 PM 10.4 °F 0.8 °F 5.0 °F 79% 30.14 in 2.0 mi WNW 5.8 mph - 0.00 in Snow Light Snow
6:40 PM 10.4 °F 2.2 °F 6.8 °F 85% 30.16 in 1.2 mi WNW 4.6 mph - 0.00 in Snow Light Snow
6:53 PM 10.0 °F -0.9 °F 5.0 °F 80% 30.25 in 1.2 mi Variable 6.9 mph 17.3 mph 0.00 in Snow Light Snow
7:11 PM 8.6 °F -1.3 °F 5.0 °F 85% 30.17 in 0.8 mi Variable 5.8 mph - 0.00 in Snow Light Snow
7:14 PM 8.6 °F -1.3 °F 6.8 °F 92% 30.17 in 1.0 mi WNW 5.8 mph - 0.00 in Snow Light Snow
7:26 PM 10.4 °F -1.5 °F 6.8 °F 85% 30.17 in 1.2 mi WNW 8.1 mph - 0.00 in Snow Light Snow
7:53 PM 10.0 °F 1.8 °F 6.1 °F 84% 30.27 in 1.0 mi Variable 4.6 mph - 0.01 in Snow Light Snow
8:08 PM 8.6 °F 0.1 °F 5.0 °F 85% 30.18 in 2.0 mi Variable 4.6 mph - 0.00 in Snow Light Snow
8:21 PM 10.4 °F -1.5 °F 5.0 °F 79% 30.19 in 1.5 mi WNW 8.1 mph - 0.00 in Snow Light Snow
8:46 PM 8.6 °F -3.7 °F 3.2 °F 79% 30.19 in 5.0 mi NW 8.1 mph - 0.00 in Snow Light Snow
8:53 PM 9.0 °F -0.9 °F 3.9 °F 80% 30.28 in 8.0 mi NW 5.8 mph - 0.00 in   Mostly Cloudy
9:31 PM 8.6 °F -1.3 °F 1.4 °F 73% 30.20 in 8.0 mi NW 5.8 mph - 0.00 in   Overcast
9:38 PM 8.6 °F -2.6 °F 1.4 °F 73% 30.20 in 7.0 mi Variable 6.9 mph - 0.00 in Snow Light Snow
9:53 PM 9.0 °F -2.2 °F 1.0 °F 70% 30.29 in 10.0 mi Variable 6.9 mph - 0.00 in   Mostly Cloudy
10:53 PM 8.1 °F -6.2 °F -0.0 °F 70% 30.29 in 10.0 mi WNW 10.4 mph 16.1 mph N/A   Mostly Cloudy
11:53 PM 9.0 °F 0.6 °F 1.0 °F 70% 30.30 in 10.0 mi WNW 4.6 mph - N/A   Overcast